Regional Weather Roundup
Issued by NWS

Home | Current Version | Previous Version | Graphics & Text | Print | Product List | Glossary On
Versions: 1 2 3 4 5 6 7 8 9 10 11 12 13 14 15 16 17 18 19 20 21 22 23 24 25 26 27 28 29 30 31 32 33 34 35 36 37 38 39 40 41 42 43 44 45 46 47 48 49 50
000
ASUS43 KBIS 281920
RWRND

NORTH DAKOTA REGIONAL WEATHER ROUNDUP
NATIONAL WEATHER SERVICE BISMARCK ND
200 PM CDT SAT MAR 28 2015

NOTE: "FAIR" INDICATES FEW OR NO CLOUDS BELOW 12,000 FEET WITH NO
SIGNIFICANT WEATHER AND/OR OBSTRUCTIONS TO VISIBILITY.


NDZ001>003-009>011-017-282000-
NORTHWEST NORTH DAKOTA

CITY           SKY/WX    TMP DP  RH WIND       PRES   REMARKS
WILLISTON      MOSUNNY   72  36  26 SW15      29.54F
MINOT          SUNNY     55  37  50 S20G25    29.61F
MINOT AFB      SUNNY     55  46  72 S23       29.59F
$$

NDZ018>021-031>035-040>046-282000-
SOUTHWEST NORTH DAKOTA

CITY           SKY/WX    TMP DP  RH WIND       PRES   REMARKS
BISMARCK       SUNNY     57  34  41 S18G28    29.76F
DICKINSON      SUNNY     72  37  28 S24G32    29.62F
GARRISON         N/A     55  39  54 S17       29.66F
HETTINGER ARPT SUNNY     72  34  24 S16G26    29.71F
$$

NDZ004>008-012>016-024-026-027-054-282000-
NORTHEAST NORTH DAKOTA

CITY           SKY/WX    TMP DP  RH WIND       PRES   REMARKS
GRAND FORKS    PTSUNNY   45  28  51 S29G37    29.91F
GRND FRKS AFB  CLOUDY    45  30  56 S22G29    29.90F
DEVILS LAKE    PTSUNNY   43  36  75 S20G30    29.78F
$$

NDZ022-023-025-028>030-036>039-047>053-282000-
SOUTHEAST NORTH DAKOTA

CITY           SKY/WX    TMP DP  RH WIND       PRES   REMARKS
FARGO          SUNNY     48  26  42 S23G37    29.97F
JAMESTOWN      MOSUNNY   46  36  68 S29G35    29.84F
$$




USA.gov is the U.S. government's official web portal to all federal, state and local government web resources and services.